Flag for U.S.A. Weather past 2 weeks in Cedar Rapids, Iowa, U.S.A.

Now
65 °F

Overcast.


Feels Like: 65 °F
Forecast: 58 / 69 °F
Wind: No wind

Location: Iowa City Municipal Airport

Current Time: Oct 2, 2014 at 5:36:52 AM

Latest Report: Oct 2, 2014 at 4:52 AM


Visibility: 7 mi

Pressure: 29.80 "Hg

Humidity: 94%

Dew point: 63 °F

Location of Cedar RapidsLocation

Historic Weather in Cedar Rapids — Graph

°F

Cedar Rapids temperature yesterday

Maximum temperature yesterday: 68 °F (at 3:52 PM)
Minimum temperature yesterday: 52 °F (at 3:52 AM)
Average temperature yesterday: 60 °F

Past Weeks' High & Low Weather Summary

 TemperatureHumidityPressure
High83 °F (Sep 29, 2:52 PM)100% (Sep 17, 11:00 PM)30.34 "Hg (Sep 17, 11:00 PM)
Low43 °F (Sep 22, 6:52 AM)40% (Sep 27, 2:52 PM)29.80 "Hg (Oct 1, 3:52 PM)
Average62 °F78%30.09 "Hg
* Reported Sep 17 3:52 AM — Oct 2 3:52 AM, Cedar Rapids, Weather by CustomWeather, © 2014

Note: Actual official high and low records may vary slightly from our data, if they occured in-between our weather recording intervals... More about our weather records

Advertising

Cedar Rapids weather history for previous 24 hours

 ConditionsComfort  
Time TempWeatherWind HumidityBarometerVisibility
3:52 AM
Oct 2
65 °FOvercast.3 mph94%29.81 "Hg7 mi
2:52 AM65 °FOvercast.3 mph94%29.81 "Hg7 mi
1:52 AM65 °FOvercast.5 mph94%29.82 "Hg9 mi
12:52 AM65 °FMostly cloudy.3 mph97%29.82 "Hg10 mi
11:52 PM
Oct 1
65 °FMostly cloudy.No wind94%29.83 "Hg10 mi
10:52 PM66 °FOvercast.No wind93%29.84 "Hg10 mi
9:52 PM66 °FOvercast.5 mph93%29.85 "Hg10 mi
8:52 PM66 °FOvercast.No wind90%29.83 "Hg10 mi
7:52 PM66 °FOvercast.5 mph90%29.82 "Hg10 mi
6:52 PM66 °FOvercast.5 mph87%29.82 "Hg10 mi
5:52 PM67 °FOvercast.6 mph85%29.82 "Hg10 mi
5:01 PM67 °FPartly sunny.9 mph81%29.82 "Hg10 mi
3:52 PM68 °FBroken clouds.8 mph82%29.80 "Hg10 mi
2:52 PM65 °FOvercast.8 mph85%29.83 "Hg10 mi
1:52 PM63 °FLight rain. Scattered clouds.8 mph84%29.83 "Hg10 mi
12:52 PM61 °FPassing clouds.10 mph87%29.85 "Hg10 mi
11:52 AM59 °FBroken clouds.7 mph87%29.85 "Hg10 mi
10:52 AM57 °FLight rain. Overcast.14 mph87%29.86 "Hg10 mi
9:52 AM57 °FMostly cloudy.13 mph81%29.87 "Hg10 mi
8:52 AM56 °FPassing clouds.7 mph81%29.92 "Hg10 mi
7:52 AM53 °FPassing clouds.8 mph86%29.91 "Hg10 mi
6:52 AM53 °FPassing clouds.12 mph83%29.90 "Hg10 mi
5:52 AM53 °FOvercast.10 mph86%29.90 "Hg10 mi
Weather by CustomWeather, © 2014

See weather overviewHow to use our weather pages